FENGYUN 1C DEB

Satellite information

Favourite Embed

Satellite Type and Status

DEBRISIN ORBIT

Key statistics

Satellite FENGYUN 1C DEB at a glance.

Uptime

9555

Days in orbit

Revolutions

≈ 13.7

Per day

Orbit

SSO

Sun Synchronous Orbit

Inclination

99.3

Latest

Satellite identification and parameters

Extended collection of information and parameters for FENGYUN 1C DEB.

Object identification

Identified? True

Debris? True

Object name: FENGYUN 1C DEB

International designator: 1999-025CLY

Object number (NORAD): 31921

Object ID (CCSDS): 31921

Country: PEOPLES REPUBLIC OF CHINA (PRC)

Current information (Y/N): Y

RCS size: SMALL

Orbital parameters

Period: 104.748 minutes

Inclination: 99.3463 deg

SMA: 7360.764 km

Apoapsis: 1133.628 km

Periapsis: 831.631 km

RAAN: 83.27 deg

Eccentricy: 0.020514

Argument of periapsis: 323.3097 deg

Mean anomaly: 35.4152 deg

Mean motion: 13.7473308 rev/day

Mean motion (dot): 0.00000615 rev/day2

B* drag term: 0.00059643 1/REarth

Two-line elements (TLE)

Creation date: July 6, 2025, 6:05 p.m.

Reference frame: TEME

Reference center: EARTH

Epoch: July 6, 2025, 3:31 p.m. UTC

TLE line 0: 0 FENGYUN 1C DEB

TLE line 1: 1 31921U 99025CLY 25187.64717790 .00000615 00000-0 59643-3 0 9997

TLE line 2: 2 31921 99.3463 83.2700 0205140 323.3097 35.4152 13.74733080901209

Live tracking on map

Real-time ground track for satellite FENGYUN 1C DEB.

In-orbit conjunctions

A list of the most updated potential collisions computed for object FENGYUN 1C DEB.

Target Orbit TCA Probability of collision Miss distance Type
FENGYUN 1C DEB SSO 2025-06-16 13:46:28 0.0003982886 11.0 (m) DEBRIS
COSMOS 1771 LEO 2024-08-03 13:59:07 0.0009807061 149.0 (m) PAYLOAD
COSMOS 2310 LEO 2024-07-14 06:08:06 0.0004375006 437.0 (m) PAYLOAD
SL-24 R/B SSO 2024-07-03 03:12:27 0.0002099335 95.0 (m) ROCKET BODY

Associated space launch

Chinese polar orbiting meteorological satellite

FENGYUN 1C DEB was lifted into orbit during the mission ‘Long March 4B | Feng Yun 1C’, on board a Long March 4B space rocket.

The launch took place on May 10, 1999, 1:33 a.m. from Launch Complex 7.

For more information about the launch, click the button.

Launch to space Long March 4B | Feng Yun 1C
Long March 4B | Feng Yun 1C

Agency: N/A

Status: Launch Successful

Launch date: May 10, 1999, 1:33 a.m. UTC

Rocket: Long March 4B

Launch pad: Launch Complex 7

Location: Taiyuan Satellite Launch Center, People's Republic of China

...

Latest news about this satellite

There are no fresh news available about this satellite. Check back as we update our databases every day.


Newsletter sign-up

Weekly statistics, charts and insights to help you stay on top of the space industry.